Ishigaki, Japan

12:56 PM JST on September 28, 2016 (GMT +0900)
Ishigaki

Weather History for ROIG - November, 2012

Change the Weather History Date:

Monday, November 19, 2012

  Actual Average Record
Temperature  
Mean Temperature 68 °F -  
Max Temperature 73 °F 75 °F 84 °F (2011)
Min Temperature 64 °F 69 °F 62 °F (2013)
Cooling Degree Days 4    
Growing Degree Days 18 (Base 50)    
Moisture  
Dew Point 63 °F    
Average Humidity 78    
Maximum Humidity 94    
Minimum Humidity 57    
Precipitation  
Precipitation 0.00 in - - ()
Sea Level Pressure  
Sea Level Pressure 30.04 in    
Wind  
Wind Speed 8 mph ()    
Max Wind Speed 15 mph    
Max Gust Speed -    
Visibility 7.1 miles    
Events Rain    
Averages and records for this station are not official NWS values.
T = Trace of Precipitation, MM = Missing Value Source: Averaged Metar Reports

Daily Weather History Graph

Daily Weather History Graph

Search for Another Location

Airport or City:

Trip Planner

Search our weather history database for the weather conditions in past years. The results will help you decide how hot, cold, wet, or windy it might be!

Date:

Astronomy

Nov. 19, 2012 Rise Set
Actual Time 7:01 AM JST 5:55 PM JST
Civil Twilight 6:37 AM JST 6:19 PM JST
Nautical Twilight 6:09 AM JST 6:47 PM JST
Astronomical Twilight 5:42 AM JST 7:14 PM JST
Moon 11:53 AM JST (11/19) 11:30 PM JST (11/19)
Length of Visible Light 11h 42m
Length of Day
10h 54m
Waxing Crescent, 34% of the Moon is Illuminated
Nov 19
Waxing Crescent
Nov 20
First Quarter
Nov 28
Full
Dec 7
Last Quarter
Dec 13
New

Hourly Weather History & Observations

Time (JST) Temp. Dew Point Humidity Pressure Visibility Wind Dir Wind Speed Gust Speed Precip Events Conditions
12:00 AM 66 °F 64 °F 90% 30.06 in - NNE 8.1 mph - -  
3:00 AM 65 °F 64 °F 93% 30.04 in 6 mi NE 8.1 mph - - Rain Light Rain
6:00 AM 66 °F 64 °F 91% 30.04 in 6 mi ENE 6.9 mph - - Rain Light Rain
6:00 AM 66.2 °F 64.4 °F 94% 30.01 in 5.6 mi NE 6.9 mph - N/A   Mostly Cloudy
7:00 AM 66.2 °F 64.4 °F 94% 30.04 in 6.2 mi ENE 8.1 mph - N/A   Mostly Cloudy
8:00 AM 68.0 °F 64.4 °F 88% 30.04 in 6.2 mi NE 8.1 mph - N/A   Mostly Cloudy
9:00 AM 71 °F 66 °F 78% 30.07 in 6 mi ENE 9.2 mph - - Rain Light Rain
9:00 AM 69.8 °F 64.4 °F 83% 30.04 in 6.2 mi ENE 10.4 mph - N/A   Mostly Cloudy
10:00 AM 69.8 °F 66.2 °F 88% 30.06 in 6.2 mi ENE 10.4 mph - N/A   Mostly Cloudy
11:00 AM 71.6 °F 66.2 °F 83% 30.06 in 6.2 mi NE 11.5 mph - N/A   Mostly Cloudy
12:00 PM 73 °F 65 °F 70% 30.06 in 12 mi ENE 11.5 mph - -   Partly Cloudy
12:00 PM 71.6 °F 64.4 °F 78% 30.04 in 6.2 mi ENE 9.2 mph - N/A   Mostly Cloudy
1:00 PM 73.4 °F 64.4 °F 73% 30.04 in 6.2 mi NE 10.4 mph - N/A   Mostly Cloudy
2:00 PM 71.6 °F 64.4 °F 78% 30.01 in 6.2 mi NNE 9.2 mph - N/A   Mostly Cloudy
3:00 PM 73 °F 62 °F 61% 30.01 in 6 mi NNE 15.0 mph - -   Partly Cloudy
3:00 PM 73.4 °F 62.6 °F 69% 30.01 in 6.2 mi NNE 15.0 mph - N/A   Mostly Cloudy
4:00 PM 71.6 °F 62.6 °F 73% 30.01 in 6.2 mi NNE 12.7 mph - N/A   Scattered Clouds
5:00 PM 71.6 °F 59.0 °F 64% 30.04 in 6.2 mi NNE 12.7 mph - N/A   Scattered Clouds
6:00 PM 71 °F 59 °F 57% 30.06 in 16 mi NE 9.2 mph - -   Mostly Cloudy
6:00 PM 69.8 °F 59.0 °F 68% 30.04 in 6.2 mi NNE 9.2 mph - N/A   Mostly Cloudy
7:00 PM 68.0 °F 60.8 °F 78% 30.06 in 6.2 mi NNE 8.1 mph - N/A   Mostly Cloudy
8:00 PM 68.0 °F 59.0 °F 73% 30.06 in 6.2 mi NNE 9.2 mph - N/A   Partly Cloudy
9:00 PM 67 °F 59 °F 70% 30.10 in 12 mi NNE 10.4 mph - -   Scattered Clouds